Weather in Surok

Russia / Mari El Republic     56°26′41″N   48°07′16″E
temp.,
°C
wind,
m/s
gust,
m/s
humid.,
%
clouds,
%
prec.,
mm/h
press.,
hPa
HPBL,
m
6 august, fri
fri600:00+13nne227312 0.0 101725
03:00+12nne2271100 0.0 101816
06:00+14ne116510 0.0 101857
09:00+21n11455 0.0 1018610
12:00+23nne223697 0.0 10181673
15:00+24n223899 0.0 10171684
18:00+21ene2457100 0.0 1017120
21:00+18e2356100 0.0 101762
7 august, sat
sat700:00+17e2258100 0.0 101839
03:00+15nne2276100 0.3 101847
06:00+13e3796100 2.2 1019233
09:00+13e4996100 5.4 1019308
12:00+15e389397 0.0 1020314
15:00+19ese466969 0.0 1019580
18:00+19e477246 0.0 1019422
21:00+16e397791 0.0 1019272
8 august, sun
sun800:00+15ese277299 0.0 1020182
03:00+15se286878 0.0 1021187
06:00+16ese376941 0.0 1021220
09:00+19se376179 0.0 1021374
12:00+26sse3440100 0.0 10201094
15:00+28sse4538100 0.0 10201351
18:00+24se3560100 0.0 1020115
21:00+19se376971 0.0 102099
9 august, mon
mon900:00+18se3874100 0.0 1020150
03:00+18se31070100 0.0 1020226
06:00+18sse2871100 0.0 1020199
09:00+25sse464854 0.0 1019416
12:00+28ssw244299 0.0 1019815
15:00+31ssw36345 0.0 10181526
18:00+28ssw12526 0.0 101725
21:00+21w22665 0.0 101813
10 august, tue
tue1000:00+20nnw37735 0.0 1018121
03:00+19nnw228076 0.0 101916
06:00+20nw137994 0.1 101996
09:00+25n23585 0.1 1019582
12:00+28n344569 0.0 10181532
15:00+28n3342100 0.0 10181686
18:00+24ne256296 0.0 1018144
21:00+20ne22729 0.0 101813